Hourly Data Report for December 05, 2003

SHERBROOKE A
QUEBEC

45°26'00.000" N
71°41'00.000" W
241.40 m
7028124
71610
YSC

Download Data

Hourly Data (December 2003)
Hourly Data Report for December 5, 2003
TIME
LST
Temp Definition
°C
Dew Point Definition
°C
Rel Hum Definition
%
Precip. Amount Definition
mm

Wind Dir Definition
10's deg

Wind Spd Definition
km/h
Visibility Definition
km
Stn Press Definition
kPa
Hmdx Definition


Wind Chill Definition


Weather Definition


00:00 -18.1 -20.5 81     0 15.0 99.83      
01:00 -16.7 -19.1 82     0 15.0 99.80      
02:00 -16.4 -18.5 84     0 15.0 99.82      
03:00 -16.0 -18.0 85   1 4 15.0 99.81   -19  
04:00 -14.8 -16.8 85     0 12.9 99.84      
05:00 -16.3 -18.3 85     0 15.0 99.82      
06:00 -17.4 -19.6 83   4 4 15.0 99.84   -21  
07:00 -16.4 -18.4 84     0 15.0 99.88      
08:00 -15.7 -17.5 86     0 19.3 99.89     Snow
09:00 -14.8 -16.7 85   27 6 19.3 99.94   -19 Snow
10:00 -13.2 -15.4 83   28 9 19.3 99.95   -19 Mainly Clear
11:00 -13.2 -17.1 72   25 9 24.1 99.91   -19 Mainly Clear
12:00 -12.1 -17.6 64   27 9 24.1 99.86   -17 Mainly Clear
13:00 -11.1 -17.3 60   27 9 24.1 99.83   -16 Mainly Clear
14:00 -10.1 -17.3 56     0 24.1 99.80     Clear
15:00 -9.0 -16.8 53     0 24.1 99.81     Clear
16:00 -12.8 -17.6 67     0 24.1 99.83     Clear
17:00 -16.3 -19.0 80     0 24.1 99.83     Clear
18:00 -16.6 -19.3 80   7 7 15.0 99.83   -22  
19:00 -17.3 -19.6 82   8 7 15.0 99.85   -23  
20:00 -18.0 -20.3 82   8 6 15.0 99.83   -23  
21:00 -17.3 -20.0 79   7 9 15.0 99.75   -24  
22:00 -17.3 -19.8 81   7 13 15.0 99.70   -25  
23:00 -18.1 -20.9 79   10 11 15.0 99.73   -25  

Notes on Data Quality.

Legend

  • E = Estimated
  • M = Missing
  • NA = Not Available*
  • [empty] = Indicates an unobserved value
Date modified: